Torna al catalogo

DMSP 5D-3 F18 DEB

AttivoSSO
NORAD 36099·DEBRIS·🇺🇸 United States

Lanciato Oct 18, 2009 da Vandenberg Space Force Base

Loading…

Prossimi Passaggi (prossime 24 ore)

TLE

AggiornatoSource: Space-Track

Epoca: Sep 14, 2026, 13:15 UTC

1 36099U 09057E   26257.55211685  .00002505  00000-0  77147-3 0  9994
2 36099  98.6366 351.8792 0008904  94.0058 266.2149 14.42352019873165

Traccia DMSP 5D-3 F18 DEB in tempo reale con AllMySat

Download on the App Store